{"data":{"norad_id":61947,"intl_designator":"2024-209J","name":"STARLINK-11390 [DTC]","alt_names":[],"object_type":"PAYLOAD","status":"ACTIVE","operator":null,"country":"US","launch_date":"2024-11-14","launch_site_code":"AFWTR","launch_vehicle":null,"mission":null,"orbit_class":"UNKNOWN","rcs_meters":null,"size_class":null,"mass_kg":null,"dimensions":null,"purposes":["comms"],"wikipedia_slug":null,"has_3d_model":false,"image_url":null,"decayed_at":null,"tle_current":{"epoch":"2026-05-25T00:10:16.177152Z","epoch_age_seconds":64676,"freshness":"FRESH","line1":"1 61947U 24209J   26145.00713168  .00147515  00000+0  11985-2 0  9996","line2":"2 61947  53.1576 355.1051 0001529  38.5382 321.5745 15.69758553 88706","mean_motion":15.69758553,"eccentricity":0.0001529,"inclination_deg":53.1576,"raan_deg":355.1051,"arg_perigee_deg":38.5382,"mean_anomaly_deg":321.5745,"bstar":0.0011985,"rev_number":8870,"period_min":91.733852779332,"perigee_km":358.55761577606,"apogee_km":360.61801202415,"semimajor_km":6737.7248139001,"source":"CELESTRAK","updated_at":"2026-05-25T13:38:19.487691Z"}}}